#datetime,building,power
2023-07-10T00:00:00,hld,2.66
2023-07-10T00:01:00,hld,2.68
2023-07-10T00:02:00,hld,2.65
2023-07-10T00:03:00,hld,2.67
2023-07-10T00:04:00,hld,2.68
2023-07-10T00:05:00,hld,2.65
2023-07-10T00:06:00,hld,2.67
2023-07-10T00:07:00,hld,2.66
2023-07-10T00:08:00,hld,2.69
2023-07-10T00:09:00,hld,2.64
2023-07-10T00:10:00,hld,2.65
2023-07-10T00:11:00,hld,2.65
2023-07-10T00:12:00,hld,2.65
2023-07-10T00:13:00,hld,2.55
2023-07-10T00:14:00,hld,2.57
2023-07-10T00:15:00,hld,2.58
2023-07-10T00:16:00,hld,2.58
2023-07-10T00:17:00,hld,2.54
2023-07-10T00:18:00,hld,2.52
2023-07-10T00:19:00,hld,3.97
2023-07-10T00:20:00,hld,2.52
2023-07-10T00:21:00,hld,2.51
2023-07-10T00:22:00,hld,2.54
2023-07-10T00:23:00,hld,2.50
2023-07-10T00:24:00,hld,2.46
2023-07-10T00:25:00,hld,2.46
2023-07-10T00:26:00,hld,2.54
2023-07-10T00:27:00,hld,2.53
2023-07-10T00:28:00,hld,2.51
2023-07-10T00:29:00,hld,2.51
2023-07-10T00:30:00,hld,2.53
2023-07-10T00:31:00,hld,2.52
2023-07-10T00:32:00,hld,2.52
2023-07-10T00:33:00,hld,2.56
2023-07-10T00:34:00,hld,2.54
2023-07-10T00:35:00,hld,2.51
2023-07-10T00:36:00,hld,2.51
2023-07-10T00:37:00,hld,2.53
2023-07-10T00:38:00,hld,2.51
2023-07-10T00:39:00,hld,2.51
2023-07-10T00:40:00,hld,2.54
2023-07-10T00:41:00,hld,2.68
2023-07-10T00:42:00,hld,2.72
2023-07-10T00:43:00,hld,2.65
2023-07-10T00:44:00,hld,2.65
2023-07-10T00:45:00,hld,2.65
2023-07-10T00:46:00,hld,3.27
2023-07-10T00:47:00,hld,2.66
2023-07-10T00:48:00,hld,2.64
2023-07-10T00:49:00,hld,2.64
2023-07-10T00:50:00,hld,3.31
2023-07-10T00:51:00,hld,2.65
2023-07-10T00:52:00,hld,2.65
2023-07-10T00:53:00,hld,11.19
2023-07-10T00:54:00,hld,11.08
2023-07-10T00:55:00,hld,10.90
2023-07-10T00:56:00,hld,10.67
2023-07-10T00:57:00,hld,10.54
2023-07-10T00:58:00,hld,2.53
2023-07-10T00:59:00,hld,2.53
2023-07-10T01:00:00,hld,2.52
2023-07-10T01:01:00,hld,2.53
2023-07-10T01:02:00,hld,2.51
2023-07-10T01:03:00,hld,2.52
2023-07-10T01:04:00,hld,2.52
2023-07-10T01:05:00,hld,2.70
2023-07-10T01:06:00,hld,2.66
2023-07-10T01:07:00,hld,2.68
2023-07-10T01:08:00,hld,2.66
2023-07-10T01:09:00,hld,2.67
2023-07-10T01:10:00,hld,2.65
2023-07-10T01:11:00,hld,2.64
2023-07-10T01:12:00,hld,2.65
2023-07-10T01:13:00,hld,2.65
2023-07-10T01:14:00,hld,2.65
2023-07-10T01:15:00,hld,2.68
2023-07-10T01:16:00,hld,2.65
2023-07-10T01:17:00,hld,2.64
2023-07-10T01:18:00,hld,2.66
2023-07-10T01:19:00,hld,2.55
2023-07-10T01:20:00,hld,2.54
2023-07-10T01:21:00,hld,2.53
2023-07-10T01:22:00,hld,2.57
2023-07-10T01:23:00,hld,2.53
2023-07-10T01:24:00,hld,2.54
2023-07-10T01:25:00,hld,2.54
2023-07-10T01:26:00,hld,3.46
2023-07-10T01:27:00,hld,2.52
2023-07-10T01:28:00,hld,2.51
2023-07-10T01:29:00,hld,2.51
2023-07-10T01:30:00,hld,2.52
2023-07-10T01:31:00,hld,2.54
2023-07-10T01:32:00,hld,2.91
2023-07-10T01:33:00,hld,2.50
2023-07-10T01:34:00,hld,2.52
2023-07-10T01:35:00,hld,2.51
2023-07-10T01:36:00,hld,2.52
2023-07-10T01:37:00,hld,2.52
2023-07-10T01:38:00,hld,2.50
2023-07-10T01:39:00,hld,2.50
2023-07-10T01:40:00,hld,2.54
2023-07-10T01:41:00,hld,2.51
2023-07-10T01:42:00,hld,2.51
2023-07-10T01:43:00,hld,2.52
2023-07-10T01:44:00,hld,2.49
2023-07-10T01:45:00,hld,2.51
2023-07-10T01:46:00,hld,2.51
2023-07-10T01:47:00,hld,2.52
2023-07-10T01:48:00,hld,2.67
2023-07-10T01:49:00,hld,2.67
2023-07-10T01:50:00,hld,2.64
2023-07-10T01:51:00,hld,2.64
2023-07-10T01:52:00,hld,2.70
2023-07-10T01:53:00,hld,2.69
2023-07-10T01:54:00,hld,3.41
2023-07-10T01:55:00,hld,2.64
2023-07-10T01:56:00,hld,2.64
2023-07-10T01:57:00,hld,2.65
2023-07-10T01:58:00,hld,2.92
2023-07-10T01:59:00,hld,2.64
2023-07-10T02:00:00,hld,2.63
2023-07-10T02:01:00,hld,2.64
2023-07-10T02:02:00,hld,2.64
2023-07-10T02:03:00,hld,2.51
2023-07-10T02:04:00,hld,2.54
2023-07-10T02:05:00,hld,2.54
2023-07-10T02:06:00,hld,2.57
2023-07-10T02:07:00,hld,2.54
2023-07-10T02:08:00,hld,2.55
2023-07-10T02:09:00,hld,2.55
2023-07-10T02:10:00,hld,2.54
2023-07-10T02:11:00,hld,2.57
2023-07-10T02:12:00,hld,2.73
2023-07-10T02:13:00,hld,2.66
2023-07-10T02:14:00,hld,2.66
2023-07-10T02:15:00,hld,2.69
2023-07-10T02:16:00,hld,2.66
2023-07-10T02:17:00,hld,2.69
2023-07-10T02:18:00,hld,2.66
2023-07-10T02:19:00,hld,2.68
2023-07-10T02:20:00,hld,2.70
2023-07-10T02:21:00,hld,2.68
2023-07-10T02:22:00,hld,2.65
2023-07-10T02:23:00,hld,2.63
2023-07-10T02:24:00,hld,2.66
2023-07-10T02:25:00,hld,2.53
2023-07-10T02:26:00,hld,2.54
2023-07-10T02:27:00,hld,2.54
2023-07-10T02:28:00,hld,2.53
2023-07-10T02:29:00,hld,2.54
2023-07-10T02:30:00,hld,2.54
2023-07-10T02:31:00,hld,2.53
2023-07-10T02:32:00,hld,2.54
2023-07-10T02:33:00,hld,2.54
2023-07-10T02:34:00,hld,3.26
2023-07-10T02:35:00,hld,2.57
2023-07-10T02:36:00,hld,2.58
2023-07-10T02:37:00,hld,2.52
2023-07-10T02:38:00,hld,2.53
2023-07-10T02:39:00,hld,2.54
2023-07-10T02:40:00,hld,2.53
2023-07-10T02:41:00,hld,2.54
2023-07-10T02:42:00,hld,2.57
2023-07-10T02:43:00,hld,2.55
2023-07-10T02:44:00,hld,2.55
2023-07-10T02:45:00,hld,2.53
2023-07-10T02:46:00,hld,2.54
2023-07-10T02:47:00,hld,2.52
2023-07-10T02:48:00,hld,2.53
2023-07-10T02:49:00,hld,2.54
2023-07-10T02:50:00,hld,2.52
2023-07-10T02:51:00,hld,2.56
2023-07-10T02:52:00,hld,2.53
2023-07-10T02:53:00,hld,2.54
2023-07-10T02:54:00,hld,2.71
2023-07-10T02:55:00,hld,2.70
2023-07-10T02:56:00,hld,2.69
2023-07-10T02:57:00,hld,2.66
2023-07-10T02:58:00,hld,2.65
2023-07-10T02:59:00,hld,2.67
2023-07-10T03:00:00,hld,2.67
2023-07-10T03:01:00,hld,2.67
2023-07-10T03:02:00,hld,2.67
2023-07-10T03:03:00,hld,2.70
2023-07-10T03:04:00,hld,2.66
2023-07-10T03:05:00,hld,2.69
2023-07-10T03:06:00,hld,2.68
2023-07-10T03:07:00,hld,2.68
2023-07-10T03:08:00,hld,2.66
2023-07-10T03:09:00,hld,2.67
2023-07-10T03:10:00,hld,2.56
2023-07-10T03:11:00,hld,2.54
2023-07-10T03:12:00,hld,3.12
2023-07-10T03:13:00,hld,2.56
2023-07-10T03:14:00,hld,2.58
2023-07-10T03:15:00,hld,2.60
2023-07-10T03:16:00,hld,2.58
2023-07-10T03:17:00,hld,2.54
2023-07-10T03:18:00,hld,2.56
2023-07-10T03:19:00,hld,2.71
2023-07-10T03:20:00,hld,2.72
2023-07-10T03:21:00,hld,2.66
2023-07-10T03:22:00,hld,2.70
2023-07-10T03:23:00,hld,2.67
2023-07-10T03:24:00,hld,2.68
2023-07-10T03:25:00,hld,2.68
2023-07-10T03:26:00,hld,2.68
2023-07-10T03:27:00,hld,2.62
2023-07-10T03:28:00,hld,2.67
2023-07-10T03:29:00,hld,2.66
2023-07-10T03:30:00,hld,2.70
2023-07-10T03:31:00,hld,2.57
2023-07-10T03:32:00,hld,2.56
2023-07-10T03:33:00,hld,2.56
2023-07-10T03:34:00,hld,2.54
2023-07-10T03:35:00,hld,2.57
2023-07-10T03:36:00,hld,2.54
2023-07-10T03:37:00,hld,2.53
2023-07-10T03:38:00,hld,2.54
2023-07-10T03:39:00,hld,2.56
2023-07-10T03:40:00,hld,2.57
2023-07-10T03:41:00,hld,2.60
2023-07-10T03:42:00,hld,2.57
2023-07-10T03:43:00,hld,2.58
2023-07-10T03:44:00,hld,2.59
2023-07-10T03:45:00,hld,2.58
2023-07-10T03:46:00,hld,2.55
2023-07-10T03:47:00,hld,2.57
2023-07-10T03:48:00,hld,2.58
2023-07-10T03:49:00,hld,2.56
2023-07-10T03:50:00,hld,2.56
2023-07-10T03:51:00,hld,2.57
2023-07-10T03:52:00,hld,2.57
2023-07-10T03:53:00,hld,2.56
2023-07-10T03:54:00,hld,2.62
2023-07-10T03:55:00,hld,2.61
2023-07-10T03:56:00,hld,3.21
2023-07-10T03:57:00,hld,2.62
2023-07-10T03:58:00,hld,2.75
2023-07-10T03:59:00,hld,2.72
2023-07-10T04:00:00,hld,2.71
2023-07-10T04:01:00,hld,2.71
2023-07-10T04:02:00,hld,2.70
2023-07-10T04:03:00,hld,2.71
2023-07-10T04:04:00,hld,2.82
2023-07-10T04:05:00,hld,4.07
2023-07-10T04:06:00,hld,4.18
2023-07-10T04:07:00,hld,5.62
2023-07-10T04:08:00,hld,8.27
2023-07-10T04:09:00,hld,8.17
2023-07-10T04:10:00,hld,4.71
2023-07-10T04:11:00,hld,4.42
2023-07-10T04:12:00,hld,4.45
2023-07-10T04:13:00,hld,4.44
2023-07-10T04:14:00,hld,8.85
2023-07-10T04:15:00,hld,8.71
2023-07-10T04:16:00,hld,8.69
2023-07-10T04:17:00,hld,8.65
2023-07-10T04:18:00,hld,8.62
2023-07-10T04:19:00,hld,8.68
2023-07-10T04:20:00,hld,5.10
2023-07-10T04:21:00,hld,4.56
2023-07-10T04:22:00,hld,4.54
2023-07-10T04:23:00,hld,4.49
2023-07-10T04:24:00,hld,4.68
2023-07-10T04:25:00,hld,4.50
2023-07-10T04:26:00,hld,4.51
2023-07-10T04:27:00,hld,5.98
2023-07-10T04:28:00,hld,4.38
2023-07-10T04:29:00,hld,4.45
2023-07-10T04:30:00,hld,4.33
2023-07-10T04:31:00,hld,4.32
2023-07-10T04:32:00,hld,4.35
2023-07-10T04:33:00,hld,4.38
2023-07-10T04:34:00,hld,4.38
2023-07-10T04:35:00,hld,4.39
2023-07-10T04:36:00,hld,4.26
2023-07-10T04:37:00,hld,4.28
2023-07-10T04:38:00,hld,4.27
2023-07-10T04:39:00,hld,4.24
2023-07-10T04:40:00,hld,4.24
2023-07-10T04:41:00,hld,4.24
2023-07-10T04:42:00,hld,14.52
2023-07-10T04:43:00,hld,4.26
2023-07-10T04:44:00,hld,4.36
2023-07-10T04:45:00,hld,4.42
2023-07-10T04:46:00,hld,4.36
2023-07-10T04:47:00,hld,4.37
2023-07-10T04:48:00,hld,4.36
2023-07-10T04:49:00,hld,4.36
2023-07-10T04:50:00,hld,4.33
2023-07-10T04:51:00,hld,4.35
2023-07-10T04:52:00,hld,4.32
2023-07-10T04:53:00,hld,4.37
2023-07-10T04:54:00,hld,4.35
2023-07-10T04:55:00,hld,4.33
2023-07-10T04:56:00,hld,4.35
2023-07-10T04:57:00,hld,4.33
2023-07-10T04:58:00,hld,4.38
2023-07-10T04:59:00,hld,4.37
2023-07-10T05:00:00,hld,4.14
2023-07-10T05:01:00,hld,4.33
2023-07-10T05:02:00,hld,4.31
2023-07-10T05:03:00,hld,12.93
2023-07-10T05:04:00,hld,12.77
2023-07-10T05:05:00,hld,12.67
2023-07-10T05:06:00,hld,12.54
2023-07-10T05:07:00,hld,3.25
2023-07-10T05:08:00,hld,3.24
2023-07-10T05:09:00,hld,3.21
2023-07-10T05:10:00,hld,3.20
2023-07-10T05:11:00,hld,3.17
2023-07-10T05:12:00,hld,3.21
2023-07-10T05:13:00,hld,3.20
2023-07-10T05:14:00,hld,3.21
2023-07-10T05:15:00,hld,3.19
2023-07-10T05:16:00,hld,3.22
2023-07-10T05:17:00,hld,3.06
2023-07-10T05:18:00,hld,3.05
2023-07-10T05:19:00,hld,2.95
2023-07-10T05:20:00,hld,3.66
2023-07-10T05:21:00,hld,2.72
2023-07-10T05:22:00,hld,2.71
2023-07-10T05:23:00,hld,2.69
2023-07-10T05:24:00,hld,2.72
2023-07-10T05:25:00,hld,2.70
2023-07-10T05:26:00,hld,2.45
2023-07-10T05:27:00,hld,2.44
2023-07-10T05:28:00,hld,2.58
2023-07-10T05:29:00,hld,2.49
2023-07-10T05:30:00,hld,2.46
2023-07-10T05:31:00,hld,2.49
2023-07-10T05:32:00,hld,2.49
2023-07-10T05:33:00,hld,2.48
2023-07-10T05:34:00,hld,2.47
2023-07-10T05:35:00,hld,2.45
2023-07-10T05:36:00,hld,2.45
2023-07-10T05:37:00,hld,2.46
2023-07-10T05:38:00,hld,2.45
2023-07-10T05:39:00,hld,2.45
2023-07-10T05:40:00,hld,2.33
2023-07-10T05:41:00,hld,2.37
2023-07-10T05:42:00,hld,2.35
2023-07-10T05:43:00,hld,2.33
2023-07-10T05:44:00,hld,2.33
2023-07-10T05:45:00,hld,2.33
2023-07-10T05:46:00,hld,2.33
2023-07-10T05:47:00,hld,2.34
2023-07-10T05:48:00,hld,2.32
2023-07-10T05:49:00,hld,2.32
2023-07-10T05:50:00,hld,2.35
2023-07-10T05:51:00,hld,2.36
2023-07-10T05:52:00,hld,2.32
2023-07-10T05:53:00,hld,2.33
2023-07-10T05:54:00,hld,2.36
2023-07-10T05:55:00,hld,2.33
2023-07-10T05:56:00,hld,2.32
2023-07-10T05:57:00,hld,2.32
2023-07-10T05:58:00,hld,2.35
2023-07-10T05:59:00,hld,2.34
2023-07-10T06:00:00,hld,2.36
2023-07-10T06:01:00,hld,2.38
2023-07-10T06:02:00,hld,2.32
2023-07-10T06:03:00,hld,2.33
2023-07-10T06:04:00,hld,2.31
2023-07-10T06:05:00,hld,3.03
2023-07-10T06:06:00,hld,2.37
2023-07-10T06:07:00,hld,2.48
2023-07-10T06:08:00,hld,2.47
2023-07-10T06:09:00,hld,2.45
2023-07-10T06:10:00,hld,2.46
2023-07-10T06:11:00,hld,2.48
2023-07-10T06:12:00,hld,2.51
2023-07-10T06:13:00,hld,2.46
2023-07-10T06:14:00,hld,2.45
2023-07-10T06:15:00,hld,2.46
2023-07-10T06:16:00,hld,2.49
2023-07-10T06:17:00,hld,2.46
2023-07-10T06:18:00,hld,2.48
2023-07-10T06:19:00,hld,2.45
2023-07-10T06:20:00,hld,2.50
2023-07-10T06:21:00,hld,2.48
2023-07-10T06:22:00,hld,2.46
2023-07-10T06:23:00,hld,2.48
2023-07-10T06:24:00,hld,2.35
2023-07-10T06:25:00,hld,2.33
2023-07-10T06:26:00,hld,2.33
2023-07-10T06:27:00,hld,2.33
2023-07-10T06:28:00,hld,2.33
2023-07-10T06:29:00,hld,2.33
2023-07-10T06:30:00,hld,2.34
2023-07-10T06:31:00,hld,3.79
2023-07-10T06:32:00,hld,2.34
2023-07-10T06:33:00,hld,2.48
2023-07-10T06:34:00,hld,2.45
2023-07-10T06:35:00,hld,2.47
2023-07-10T06:36:00,hld,2.46
2023-07-10T06:37:00,hld,2.46
2023-07-10T06:38:00,hld,2.43
2023-07-10T06:39:00,hld,2.44
2023-07-10T06:40:00,hld,2.44
2023-07-10T06:41:00,hld,2.47
2023-07-10T06:42:00,hld,2.45
2023-07-10T06:43:00,hld,2.46
2023-07-10T06:44:00,hld,2.32
2023-07-10T06:45:00,hld,2.33
2023-07-10T06:46:00,hld,2.33
2023-07-10T06:47:00,hld,2.33
2023-07-10T06:48:00,hld,2.31
2023-07-10T06:49:00,hld,2.31
2023-07-10T06:50:00,hld,2.33
2023-07-10T06:51:00,hld,2.31
2023-07-10T06:52:00,hld,2.34
2023-07-10T06:53:00,hld,2.31
2023-07-10T06:54:00,hld,3.02
2023-07-10T06:55:00,hld,2.31
2023-07-10T06:56:00,hld,2.34
2023-07-10T06:57:00,hld,2.33
2023-07-10T06:58:00,hld,2.33
2023-07-10T06:59:00,hld,3.03
2023-07-10T07:00:00,hld,2.35
2023-07-10T07:01:00,hld,2.33
2023-07-10T07:02:00,hld,2.33
2023-07-10T07:03:00,hld,2.33
2023-07-10T07:04:00,hld,2.32
2023-07-10T07:05:00,hld,2.40
2023-07-10T07:06:00,hld,2.36
2023-07-10T07:07:00,hld,2.32
2023-07-10T07:08:00,hld,2.33
2023-07-10T07:09:00,hld,2.33
2023-07-10T07:10:00,hld,2.33
2023-07-10T07:11:00,hld,2.35
2023-07-10T07:12:00,hld,2.52
2023-07-10T07:13:00,hld,2.47
2023-07-10T07:14:00,hld,2.46
2023-07-10T07:15:00,hld,2.46
2023-07-10T07:16:00,hld,2.52
2023-07-10T07:17:00,hld,2.46
2023-07-10T07:18:00,hld,2.44
2023-07-10T07:19:00,hld,2.59
2023-07-10T07:20:00,hld,2.44
2023-07-10T07:21:00,hld,2.45
2023-07-10T07:22:00,hld,2.45
2023-07-10T07:23:00,hld,2.45
2023-07-10T07:24:00,hld,2.45
2023-07-10T07:25:00,hld,2.45
2023-07-10T07:26:00,hld,2.45
2023-07-10T07:27:00,hld,2.46
2023-07-10T07:28:00,hld,2.34
2023-07-10T07:29:00,hld,2.33
2023-07-10T07:30:00,hld,3.24
2023-07-10T07:31:00,hld,2.35
2023-07-10T07:32:00,hld,2.33
2023-07-10T07:33:00,hld,2.40
2023-07-10T07:34:00,hld,2.77
2023-07-10T07:35:00,hld,5.54
2023-07-10T07:36:00,hld,6.53
2023-07-10T07:37:00,hld,7.96
2023-07-10T07:38:00,hld,9.37
2023-07-10T07:39:00,hld,9.34
2023-07-10T07:40:00,hld,9.06
2023-07-10T07:41:00,hld,9.93
2023-07-10T07:42:00,hld,9.32
2023-07-10T07:43:00,hld,9.28
2023-07-10T07:44:00,hld,9.29
2023-07-10T07:45:00,hld,8.59
2023-07-10T07:46:00,hld,9.31
2023-07-10T07:47:00,hld,9.31
2023-07-10T07:48:00,hld,9.27
2023-07-10T07:49:00,hld,9.18
2023-07-10T07:50:00,hld,9.27
2023-07-10T07:51:00,hld,9.78
2023-07-10T07:52:00,hld,9.81
2023-07-10T07:53:00,hld,9.82
2023-07-10T07:54:00,hld,9.81
2023-07-10T07:55:00,hld,9.83
2023-07-10T07:56:00,hld,9.86
2023-07-10T07:57:00,hld,9.86
2023-07-10T07:58:00,hld,9.98
2023-07-10T07:59:00,hld,9.86
2023-07-10T08:00:00,hld,11.76
2023-07-10T08:01:00,hld,19.90
2023-07-10T08:02:00,hld,18.73
2023-07-10T08:03:00,hld,18.80
2023-07-10T08:04:00,hld,19.09
2023-07-10T08:05:00,hld,18.88
2023-07-10T08:06:00,hld,18.60
2023-07-10T08:07:00,hld,18.87
2023-07-10T08:08:00,hld,19.16
2023-07-10T08:09:00,hld,18.93
2023-07-10T08:10:00,hld,20.32
2023-07-10T08:11:00,hld,18.94
2023-07-10T08:12:00,hld,18.73
2023-07-10T08:13:00,hld,18.68
2023-07-10T08:14:00,hld,18.69
2023-07-10T08:15:00,hld,18.70
2023-07-10T08:16:00,hld,18.89
2023-07-10T08:17:00,hld,18.82
2023-07-10T08:18:00,hld,18.86
2023-07-10T08:19:00,hld,18.85
2023-07-10T08:20:00,hld,19.07
2023-07-10T08:21:00,hld,19.07
2023-07-10T08:22:00,hld,15.41
2023-07-10T08:23:00,hld,15.37
2023-07-10T08:24:00,hld,9.14
2023-07-10T08:25:00,hld,12.07
2023-07-10T08:26:00,hld,11.85
2023-07-10T08:27:00,hld,14.96
2023-07-10T13:52:00,hld,10.81
2023-07-10T13:53:00,hld,16.83
2023-07-10T13:54:00,hld,16.07
2023-07-10T13:55:00,hld,16.05
2023-07-10T13:56:00,hld,16.07
2023-07-10T13:57:00,hld,15.88
2023-07-10T13:58:00,hld,16.30
2023-07-10T13:59:00,hld,16.39
2023-07-10T14:00:00,hld,16.34
2023-07-10T14:01:00,hld,17.50
2023-07-10T14:02:00,hld,10.97
2023-07-10T14:03:00,hld,10.99
2023-07-10T14:04:00,hld,10.96
2023-07-10T14:05:00,hld,10.98
2023-07-10T14:06:00,hld,10.93
2023-07-10T14:07:00,hld,10.98
2023-07-10T14:08:00,hld,10.23
2023-07-10T14:09:00,hld,10.73
2023-07-10T14:10:00,hld,10.25
2023-07-10T14:11:00,hld,10.09
2023-07-10T14:12:00,hld,15.28
2023-07-10T14:13:00,hld,16.52
2023-07-10T14:14:00,hld,15.78
2023-07-10T14:15:00,hld,15.18
2023-07-10T14:16:00,hld,14.89
2023-07-10T14:17:00,hld,16.38
2023-07-10T14:18:00,hld,15.42
2023-07-10T14:19:00,hld,15.12
2023-07-10T14:20:00,hld,15.32
2023-07-10T14:21:00,hld,9.92
2023-07-10T14:22:00,hld,9.92
2023-07-10T14:23:00,hld,9.85
2023-07-10T14:24:00,hld,10.17
2023-07-10T14:25:00,hld,9.85
2023-07-10T14:26:00,hld,9.83
2023-07-10T14:27:00,hld,9.55
2023-07-10T14:28:00,hld,9.51
2023-07-10T14:29:00,hld,9.54
2023-07-10T14:30:00,hld,9.76
2023-07-10T14:31:00,hld,11.77
2023-07-10T14:32:00,hld,15.54
2023-07-10T14:33:00,hld,15.62
2023-07-10T14:34:00,hld,15.70
2023-07-10T14:35:00,hld,15.68
2023-07-10T14:36:00,hld,15.71
2023-07-10T14:37:00,hld,15.95
2023-07-10T14:38:00,hld,15.78
2023-07-10T14:39:00,hld,15.94
2023-07-10T14:40:00,hld,10.57
2023-07-10T14:41:00,hld,10.46
2023-07-10T14:42:00,hld,10.40
2023-07-10T14:43:00,hld,10.28
2023-07-10T14:44:00,hld,10.11
2023-07-10T14:45:00,hld,10.10
2023-07-10T14:46:00,hld,10.13
2023-07-10T14:47:00,hld,11.63
2023-07-10T14:48:00,hld,10.08
2023-07-10T14:49:00,hld,10.04
2023-07-10T14:50:00,hld,11.58
2023-07-10T14:51:00,hld,15.41
2023-07-10T14:52:00,hld,15.37
2023-07-10T14:53:00,hld,15.19
2023-07-10T14:54:00,hld,15.43
2023-07-10T14:55:00,hld,15.68
2023-07-10T14:56:00,hld,15.79
2023-07-10T14:57:00,hld,15.76
2023-07-10T14:58:00,hld,15.95
2023-07-10T14:59:00,hld,10.53
2023-07-10T15:00:00,hld,10.58
2023-07-10T15:01:00,hld,10.55
2023-07-10T15:02:00,hld,10.56
2023-07-10T15:03:00,hld,10.57
2023-07-10T15:04:00,hld,10.53
2023-07-10T15:05:00,hld,10.57
2023-07-10T15:06:00,hld,10.52
2023-07-10T15:07:00,hld,10.35
2023-07-10T15:08:00,hld,10.34
2023-07-10T15:09:00,hld,15.33
2023-07-10T15:10:00,hld,15.54
2023-07-10T15:11:00,hld,15.55
2023-07-10T15:12:00,hld,15.43
2023-07-10T15:13:00,hld,15.42
2023-07-10T15:14:00,hld,15.71
2023-07-10T15:15:00,hld,15.72
2023-07-10T15:16:00,hld,15.75
2023-07-10T15:17:00,hld,15.59
2023-07-10T15:18:00,hld,10.06
2023-07-10T15:19:00,hld,10.08
2023-07-10T15:20:00,hld,10.02
2023-07-10T15:21:00,hld,10.01
2023-07-10T15:22:00,hld,10.35
2023-07-10T15:23:00,hld,9.98
2023-07-10T15:24:00,hld,10.00
2023-07-10T15:25:00,hld,9.98
2023-07-10T15:26:00,hld,9.85
2023-07-10T15:27:00,hld,9.84
2023-07-10T15:28:00,hld,10.92
2023-07-10T15:29:00,hld,15.09
2023-07-10T15:30:00,hld,19.12
2023-07-10T15:31:00,hld,19.05
2023-07-10T15:32:00,hld,19.05
2023-07-10T15:33:00,hld,19.29
2023-07-10T15:34:00,hld,15.61
2023-07-10T15:35:00,hld,15.67
2023-07-10T15:36:00,hld,15.62
2023-07-10T15:37:00,hld,10.19
2023-07-10T15:38:00,hld,10.20
2023-07-10T15:39:00,hld,10.20
2023-07-10T15:40:00,hld,10.17
2023-07-10T15:41:00,hld,10.19
2023-07-10T15:42:00,hld,10.19
2023-07-10T15:43:00,hld,10.17
2023-07-10T15:44:00,hld,10.17
2023-07-10T15:45:00,hld,10.15
2023-07-10T15:46:00,hld,10.36
2023-07-10T15:47:00,hld,11.32
2023-07-10T15:48:00,hld,15.57
2023-07-10T15:49:00,hld,15.66
2023-07-10T15:50:00,hld,15.53
2023-07-10T15:51:00,hld,15.61
2023-07-10T15:52:00,hld,15.80
2023-07-10T15:53:00,hld,15.88
2023-07-10T15:54:00,hld,15.88
2023-07-10T15:55:00,hld,15.81
2023-07-10T15:56:00,hld,16.07
2023-07-10T15:57:00,hld,10.48
2023-07-10T15:58:00,hld,10.49
2023-07-10T15:59:00,hld,10.27
2023-07-10T16:00:00,hld,10.35
2023-07-10T16:01:00,hld,10.37
2023-07-10T16:02:00,hld,10.19
2023-07-10T16:03:00,hld,10.36
2023-07-10T16:04:00,hld,10.25
2023-07-10T16:05:00,hld,10.25
2023-07-10T16:06:00,hld,15.27
2023-07-10T16:07:00,hld,15.50
2023-07-10T16:08:00,hld,15.46
2023-07-10T16:09:00,hld,15.30
2023-07-10T16:10:00,hld,15.11
2023-07-10T16:11:00,hld,16.24
2023-07-10T16:12:00,hld,15.53
2023-07-10T16:13:00,hld,15.30
2023-07-10T16:14:00,hld,15.62
2023-07-10T16:15:00,hld,15.33
2023-07-10T16:16:00,hld,11.92
2023-07-10T16:17:00,hld,10.21
2023-07-10T16:18:00,hld,10.27
2023-07-10T16:19:00,hld,10.20
2023-07-10T16:20:00,hld,10.20
2023-07-10T16:21:00,hld,10.26
2023-07-10T16:22:00,hld,10.17
2023-07-10T16:23:00,hld,10.19
2023-07-10T16:24:00,hld,10.17
2023-07-10T16:25:00,hld,15.01
2023-07-10T16:26:00,hld,15.24
2023-07-10T16:27:00,hld,15.24
2023-07-10T16:28:00,hld,15.22
2023-07-10T16:29:00,hld,15.11
2023-07-10T16:30:00,hld,15.59
2023-07-10T16:31:00,hld,15.57
2023-07-10T16:32:00,hld,15.54
2023-07-10T16:33:00,hld,15.56
2023-07-10T16:34:00,hld,15.41
2023-07-10T16:35:00,hld,10.00
2023-07-10T16:36:00,hld,9.49
2023-07-10T16:37:00,hld,9.48
2023-07-10T16:38:00,hld,9.34
2023-07-10T16:39:00,hld,9.39
2023-07-10T16:40:00,hld,9.36
2023-07-10T16:41:00,hld,9.35
2023-07-10T16:42:00,hld,9.40
2023-07-10T16:43:00,hld,9.38
2023-07-10T16:44:00,hld,14.46
2023-07-10T16:45:00,hld,14.62
2023-07-10T16:46:00,hld,14.46
2023-07-10T16:47:00,hld,14.56
2023-07-10T16:48:00,hld,14.28
2023-07-10T16:49:00,hld,14.25
2023-07-10T16:50:00,hld,14.32
2023-07-10T16:51:00,hld,14.32
2023-07-10T16:52:00,hld,14.13
2023-07-10T16:53:00,hld,8.92
2023-07-10T16:54:00,hld,9.69
2023-07-10T16:55:00,hld,8.82
2023-07-10T16:56:00,hld,9.38
2023-07-10T16:57:00,hld,6.66
2023-07-10T16:58:00,hld,6.65
2023-07-10T16:59:00,hld,6.66
2023-07-10T17:00:00,hld,6.64
2023-07-10T17:01:00,hld,6.65
2023-07-10T17:02:00,hld,6.60
2023-07-10T17:03:00,hld,6.64
2023-07-10T17:04:00,hld,6.80
2023-07-10T17:05:00,hld,6.74
2023-07-10T17:06:00,hld,6.61
2023-07-10T17:07:00,hld,6.58
2023-07-10T17:08:00,hld,6.58
2023-07-10T17:09:00,hld,6.57
2023-07-10T17:10:00,hld,7.50
2023-07-10T17:11:00,hld,7.67
2023-07-10T17:12:00,hld,17.59
2023-07-10T17:13:00,hld,17.23
2023-07-10T17:14:00,hld,17.08
2023-07-10T17:15:00,hld,16.93
2023-07-10T17:16:00,hld,18.29
2023-07-10T17:17:00,hld,8.83
2023-07-10T17:18:00,hld,8.86
2023-07-10T17:19:00,hld,8.82
2023-07-10T17:20:00,hld,8.81
2023-07-10T17:21:00,hld,8.75
2023-07-10T17:22:00,hld,8.71
2023-07-10T17:23:00,hld,8.69
2023-07-10T17:24:00,hld,8.71
2023-07-10T17:25:00,hld,8.75
2023-07-10T17:26:00,hld,8.72
2023-07-10T17:27:00,hld,9.23
2023-07-10T17:28:00,hld,8.67
2023-07-10T17:29:00,hld,8.70
2023-07-10T17:30:00,hld,8.70
2023-07-10T17:31:00,hld,9.05
2023-07-10T17:32:00,hld,9.09
2023-07-10T17:33:00,hld,9.01
2023-07-10T17:34:00,hld,9.03
2023-07-10T17:35:00,hld,9.05
2023-07-10T17:36:00,hld,9.10
2023-07-10T17:37:00,hld,9.05
2023-07-10T17:38:00,hld,9.19
2023-07-10T17:39:00,hld,9.13
2023-07-10T17:40:00,hld,9.45
2023-07-10T17:41:00,hld,9.17
2023-07-10T17:42:00,hld,9.49
2023-07-10T17:43:00,hld,9.48
2023-07-10T17:44:00,hld,9.45
2023-07-10T17:45:00,hld,9.45
2023-07-10T17:46:00,hld,9.48
2023-07-10T17:47:00,hld,9.34
2023-07-10T17:48:00,hld,9.29
2023-07-10T17:49:00,hld,9.32
2023-07-10T17:50:00,hld,9.33
2023-07-10T17:51:00,hld,9.29
2023-07-10T17:52:00,hld,9.30
2023-07-10T17:53:00,hld,9.31
2023-07-10T17:54:00,hld,9.33
2023-07-10T17:55:00,hld,9.33
2023-07-10T17:56:00,hld,9.32
2023-07-10T17:57:00,hld,10.57
2023-07-10T17:58:00,hld,15.64
2023-07-10T17:59:00,hld,15.63
2023-07-10T18:00:00,hld,15.24
2023-07-10T18:01:00,hld,15.43
2023-07-10T18:02:00,hld,15.48
2023-07-10T18:03:00,hld,15.48
2023-07-10T18:04:00,hld,10.32
2023-07-10T18:05:00,hld,9.30
2023-07-10T18:06:00,hld,9.30
2023-07-10T18:07:00,hld,9.26
2023-07-10T18:08:00,hld,9.29
2023-07-10T18:09:00,hld,9.36
2023-07-10T18:10:00,hld,9.28
2023-07-10T18:11:00,hld,9.26
2023-07-10T18:12:00,hld,9.27
2023-07-10T18:13:00,hld,9.31
2023-07-10T18:14:00,hld,9.26
2023-07-10T18:15:00,hld,14.35
2023-07-10T18:16:00,hld,14.75
2023-07-10T18:17:00,hld,14.13
2023-07-10T18:18:00,hld,14.36
2023-07-10T18:19:00,hld,14.35
2023-07-10T18:20:00,hld,14.47
2023-07-10T18:21:00,hld,14.50
2023-07-10T18:22:00,hld,14.46
2023-07-10T18:23:00,hld,14.22
2023-07-10T18:24:00,hld,9.15
2023-07-10T18:25:00,hld,9.11
2023-07-10T18:26:00,hld,9.21
2023-07-10T18:27:00,hld,9.27
2023-07-10T18:28:00,hld,9.21
2023-07-10T18:29:00,hld,9.41
2023-07-10T18:30:00,hld,9.38
2023-07-10T18:31:00,hld,9.39
2023-07-10T18:32:00,hld,9.44
2023-07-10T18:33:00,hld,15.25
2023-07-10T18:34:00,hld,14.63
2023-07-10T18:35:00,hld,14.61
2023-07-10T18:36:00,hld,14.41
2023-07-10T18:37:00,hld,14.45
2023-07-10T18:38:00,hld,15.37
2023-07-10T18:39:00,hld,14.59
2023-07-10T18:40:00,hld,14.67
2023-07-10T18:41:00,hld,14.69
2023-07-10T18:42:00,hld,9.24
2023-07-10T18:43:00,hld,9.23
2023-07-10T18:44:00,hld,9.26
2023-07-10T18:45:00,hld,9.22
2023-07-10T18:46:00,hld,9.30
2023-07-10T18:47:00,hld,9.30
2023-07-10T18:48:00,hld,9.28
2023-07-10T18:49:00,hld,9.26
2023-07-10T18:50:00,hld,9.27
2023-07-10T18:51:00,hld,14.48
2023-07-10T18:52:00,hld,14.49
2023-07-10T18:53:00,hld,14.45
2023-07-10T18:54:00,hld,14.19
2023-07-10T18:55:00,hld,14.37
2023-07-10T18:56:00,hld,14.53
2023-07-10T18:57:00,hld,14.43
2023-07-10T18:58:00,hld,14.53
2023-07-10T18:59:00,hld,9.15
2023-07-10T19:00:00,hld,9.29
2023-07-10T19:01:00,hld,9.29